Weather History for Burlington, WA

Change the Weather History Date:

Saturday, September 1, 2012

  Actual Average Record
Temperature  
Mean Temperature 58 °F -  
Max Temperature 69 °F 71 °F 85 °F (1987)
Min Temperature 46 °F 49 °F 36 °F (1973)
Degree Days  
Heating Degree Days 8    
Growing Degree Days 8 (Base 50)    
Moisture  
Dew Point 50 °F    
Average Humidity 81    
Maximum Humidity 100    
Minimum Humidity 56    
Precipitation  
Precipitation 0.00 in - - ()
Sea Level Pressure  
Sea Level Pressure 30.11 in    
Wind  
Wind Speed 3 mph (SSW)    
Max Wind Speed 10 mph    
Max Gust Speed 18 mph    
Visibility 10 miles    
Events      
Averages and records for this station are not official NWS values.
T = Trace of Precipitation, MM = Missing Value Source: NWS Daily Summary

Daily Weather History Graph

Daily Weather History Graph

Search for Another Location

Airport:

Trip Planner

Search our weather history database for the weather conditions in past years. The results will help you decide how hot, cold, wet, or windy it might be!

Date:

Astronomy

Sep. 01, 2012 Rise Set
Actual Time 6:27 AM PDT 7:50 PM PDT
Civil Twilight 5:55 AM PDT 8:22 PM PDT
Nautical Twilight 5:15 AM PDT 9:01 PM PDT
Astronomical Twilight 4:33 AM PDT 9:43 PM PDT
Moon 7:55 PM PDT (9/1) 7:52 AM PDT (9/1)
Length of Visible Light 14h 27m
Length of Day
13h 22m
Full, 98% of the Moon is Illuminated
Sep 1
Full
Sep 8
Last Quarter
Sep 15
New
Sep 22
First Quarter
Sep 29
Full

Hourly Weather History & Observations

Time (PDT) Temp. Windchill Dew Point Humidity Pressure Visibility Wind Dir Wind Speed Gust Speed Precip Events Conditions
12:15 AM 48.2 °F - 48.2 °F 100% 30.01 in 10.0 mi Calm Calm - 0.00 in   Clear
12:35 AM 48.2 °F - 48.2 °F 100% 30.01 in 10.0 mi SSW 3.5 mph - 0.00 in   Clear
12:55 AM 48.2 °F - 48.2 °F 100% 30.01 in 10.0 mi Calm Calm - 0.00 in   Clear
1:35 AM 48.2 °F - 48.2 °F 100% 30.02 in 10.0 mi Calm Calm - 0.00 in   Clear
1:55 AM 48.2 °F - 48.2 °F 100% 30.02 in 10.0 mi Calm Calm - 0.00 in   Clear
2:15 AM 48.2 °F - 48.2 °F 100% 30.03 in 10.0 mi Calm Calm - 0.00 in   Clear
2:55 AM 46.4 °F - 46.4 °F 100% 30.04 in 10.0 mi Calm Calm - 0.00 in   Clear
3:15 AM 48.2 °F - 48.2 °F 100% 30.04 in 10.0 mi Calm Calm - 0.00 in   Clear
3:35 AM 46.4 °F 44.3 °F 46.4 °F 100% 30.05 in 10.0 mi SE 4.6 mph - 0.00 in   Clear
3:55 AM 46.4 °F 43.5 °F 46.4 °F 100% 30.05 in 10.0 mi SSE 5.8 mph - 0.00 in   Clear
4:15 AM 48.2 °F - 48.2 °F 100% 30.06 in 10.0 mi SSE 6.9 mph - 0.00 in   Partly Cloudy
4:35 AM 50.0 °F - 50.0 °F 100% 30.06 in 10.0 mi SSE 6.9 mph - 0.00 in   Scattered Clouds
4:55 AM 50.0 °F - 50.0 °F 100% 30.06 in 10.0 mi SSE 5.8 mph - 0.00 in   Scattered Clouds
5:15 AM 50.0 °F - 50.0 °F 100% 30.07 in 8.0 mi South 4.6 mph - 0.00 in   Mostly Cloudy
5:35 AM 51.8 °F - 51.8 °F 100% 30.07 in 10.0 mi SE 4.6 mph - 0.00 in   Overcast
5:55 AM 51.8 °F - 51.8 °F 100% 30.07 in 10.0 mi SE 3.5 mph - 0.00 in   Mostly Cloudy
6:15 AM 48.2 °F - 48.2 °F 100% 30.08 in 9.0 mi Calm Calm - 0.00 in   Partly Cloudy
6:35 AM 48.2 °F - 48.2 °F 100% 30.09 in 10.0 mi ENE 4.6 mph - 0.00 in   Clear
6:55 AM 48.2 °F - 48.2 °F 100% 30.09 in 10.0 mi Calm Calm - 0.00 in   Clear
7:15 AM 48.2 °F - 48.2 °F 100% 30.10 in 10.0 mi Calm Calm - 0.00 in   Clear
7:35 AM 48.2 °F - 48.2 °F 100% 30.11 in 10.0 mi NE 3.5 mph - 0.00 in   Clear
7:55 AM 51.8 °F - 50.0 °F 94% 30.11 in 10.0 mi Calm Calm - 0.00 in   Clear
8:15 AM 51.8 °F - 51.8 °F 100% 30.12 in 10.0 mi Calm Calm - 0.00 in   Clear
8:35 AM 53.6 °F - 51.8 °F 94% 30.12 in 10.0 mi Calm Calm - 0.00 in   Clear
9:15 AM 55.4 °F - 51.8 °F 88% 30.12 in 10.0 mi Calm Calm - 0.00 in   Clear
9:55 AM 59.0 °F - 51.8 °F 77% 30.14 in 10.0 mi SW 4.6 mph - 0.00 in   Clear
10:15 AM 60.8 °F - 51.8 °F 72% 30.14 in 10.0 mi SE 3.5 mph - 0.00 in   Clear
10:35 AM 60.8 °F - 51.8 °F 72% 30.14 in 10.0 mi South 4.6 mph - 0.00 in   Clear
10:55 AM 62.6 °F - 51.8 °F 68% 30.14 in 10.0 mi South 4.6 mph - 0.00 in   Clear
11:15 AM 62.6 °F - 51.8 °F 68% 30.14 in 8.0 mi SSW 6.9 mph - 0.00 in   Clear
11:55 AM 64.4 °F - 51.8 °F 64% 30.14 in 10.0 mi SSE 3.5 mph - 0.00 in   Clear
12:15 PM 66.2 °F - 51.8 °F 60% 30.14 in 10.0 mi SW 9.2 mph - 0.00 in   Clear
12:35 PM 66.2 °F - 51.8 °F 60% 30.14 in 10.0 mi SSW 6.9 mph - 0.00 in   Clear
12:55 PM 68.0 °F - 51.8 °F 56% 30.13 in 10.0 mi SSW 8.1 mph - 0.00 in   Clear
1:15 PM 66.2 °F - 51.8 °F 60% 30.14 in 10.0 mi SW 8.1 mph 18.4 mph 0.00 in   Clear
1:35 PM 68.0 °F - 51.8 °F 56% 30.14 in 10.0 mi SW 8.1 mph 17.3 mph 0.00 in   Clear
1:55 PM 68.0 °F - 51.8 °F 56% 30.14 in 10.0 mi SW 8.1 mph - 0.00 in   Clear
2:15 PM 68.0 °F - 53.6 °F 60% 30.13 in 10.0 mi South 6.9 mph - 0.00 in   Clear
2:35 PM 69.8 °F - 53.6 °F 56% 30.13 in 10.0 mi West 4.6 mph 16.1 mph 0.00 in   Clear
2:55 PM 68.0 °F - 53.6 °F 60% 30.13 in 10.0 mi WSW 9.2 mph 16.1 mph 0.00 in   Clear
3:15 PM 68.0 °F - 53.6 °F 60% 30.13 in 10.0 mi West 5.8 mph - 0.00 in   Clear
3:35 PM 68.0 °F - 53.6 °F 60% 30.12 in 10.0 mi SW 8.1 mph - 0.00 in   Clear
3:55 PM 69.8 °F - 53.6 °F 56% 30.12 in 10.0 mi SW 8.1 mph 16.1 mph 0.00 in   Clear
4:15 PM 68.0 °F - 53.6 °F 60% 30.13 in 10.0 mi SW 9.2 mph - 0.00 in   Clear
4:35 PM 64.4 °F - 53.6 °F 68% 30.13 in 10.0 mi WSW 8.1 mph - 0.00 in   Clear
4:55 PM 64.4 °F - 53.6 °F 68% 30.13 in 10.0 mi WSW 9.2 mph - 0.00 in   Clear
5:15 PM 64.4 °F - 51.8 °F 64% 30.14 in 10.0 mi WSW 9.2 mph - 0.00 in   Clear
5:35 PM 64.4 °F - 51.8 °F 64% 30.13 in 10.0 mi SW 6.9 mph - 0.00 in   Clear
6:15 PM 62.6 °F - 50.0 °F 63% 30.13 in 10.0 mi SSW 6.9 mph - 0.00 in   Clear
6:55 PM 60.8 °F - 48.2 °F 63% 30.13 in 10.0 mi SW 4.6 mph - 0.00 in   Clear
7:15 PM 60.8 °F - 48.2 °F 63% 30.13 in 10.0 mi SSW 6.9 mph - 0.00 in   Clear
7:35 PM 57.2 °F - 48.2 °F 72% 30.14 in 10.0 mi SW 10.4 mph - 0.00 in   Clear
7:55 PM 57.2 °F - 50.0 °F 77% 30.14 in 10.0 mi Calm Calm - 0.00 in   Clear
8:15 PM 55.4 °F - 50.0 °F 82% 30.14 in 10.0 mi South 5.8 mph - 0.00 in   Clear
8:35 PM 55.4 °F - 50.0 °F 82% 30.15 in 10.0 mi South 4.6 mph - 0.00 in   Clear
8:55 PM 53.6 °F - 48.2 °F 82% 30.15 in 10.0 mi SSE 4.6 mph - 0.00 in   Clear
9:15 PM 53.6 °F - 48.2 °F 82% 30.15 in 10.0 mi SSW 9.2 mph - 0.00 in   Clear
9:55 PM 53.6 °F - 48.2 °F 82% 30.15 in 10.0 mi East 3.5 mph - 0.00 in   Clear
10:35 PM 51.8 °F - 48.2 °F 88% 30.15 in 10.0 mi South 3.5 mph - 0.00 in   Clear
10:55 PM 51.8 °F - 48.2 °F 88% 30.15 in 10.0 mi South 4.6 mph - 0.00 in   Clear
11:15 PM 51.8 °F - 50.0 °F 94% 30.15 in 10.0 mi Calm Calm - 0.00 in   Clear
11:35 PM 53.6 °F - 50.0 °F 88% 30.16 in 10.0 mi Calm Calm - 0.00 in   Mostly Cloudy